JZA438 CYCD-PAKT

Flight info

Callsign JZA438
Flight time 1h 33m
Altitude 34000
Route KATUB T719 YZT DCT CYPR DCT ANN
Aircraft CRJ9/M-SDFGIRWY/S

Departure

Time 2026-04-17 11:24
Airport Nanaimo Airport (CYCD)

Arrival

Time 2026-04-17 12:58
Airport Ketchikan International Airport (PAKT)
Time Latitude Longitude Altitude Speed Heading
2026-04-17 10:45 49.05245 -123.87331 99 ft 0 kts 308°
2026-04-17 11:12 49.05243 -123.87328 99 ft 2 kts 308°
2026-04-17 11:12 49.05235 -123.87305 99 ft 3 kts 284°
2026-04-17 11:12 49.05237 -123.87282 99 ft 3 kts 236°
2026-04-17 11:12 49.05251 -123.87268 99 ft 3 kts 196°
2026-04-17 11:13 49.05263 -123.87265 99 ft 0 kts 181°
2026-04-17 11:17 49.05258 -123.87265 99 ft 1 kts 180°
2026-04-17 11:17 49.05248 -123.87265 99 ft 2 kts 180°
2026-04-17 11:17 49.05233 -123.87266 99 ft 3 kts 180°
2026-04-17 11:17 49.05212 -123.87266 99 ft 3 kts 180°
2026-04-17 11:18 49.05184 -123.87266 99 ft 4 kts 180°
2026-04-17 11:18 49.05151 -123.87266 99 ft 5 kts 182°
2026-04-17 11:18 49.05113 -123.87269 99 ft 6 kts 182°
2026-04-17 11:18 49.05069 -123.87270 99 ft 7 kts 180°
2026-04-17 11:19 49.05018 -123.87271 99 ft 8 kts 181°
2026-04-17 11:19 49.04963 -123.87273 99 ft 8 kts 180°
2026-04-17 11:19 49.04902 -123.87274 99 ft 9 kts 181°
2026-04-17 11:19 49.04836 -123.87276 99 ft 10 kts 181°
2026-04-17 11:20 49.04766 -123.87278 99 ft 11 kts 181°
2026-04-17 11:20 49.04692 -123.87280 99 ft 10 kts 175°
2026-04-17 11:20 49.04633 -123.87228 99 ft 10 kts 138°
2026-04-17 11:20 49.04594 -123.87172 99 ft 0 kts 136°
2026-04-17 11:21 49.04593 -123.87171 99 ft 0 kts 136°
2026-04-17 11:21 49.04589 -123.87164 99 ft 2 kts 136°
2026-04-17 11:21 49.04578 -123.87148 99 ft 3 kts 132°
2026-04-17 11:22 49.04566 -123.87117 99 ft 4 kts 104°
2026-04-17 11:22 49.04570 -123.87073 99 ft 4 kts 64°
2026-04-17 11:22 49.04587 -123.87046 99 ft 3 kts 28°
2026-04-17 11:22 49.04602 -123.87039 99 ft 2 kts 12°
2026-04-17 11:23 49.04616 -123.87036 100 ft 1 kts
2026-04-17 11:23 49.04617 -123.87036 100 ft 0 kts
2026-04-17 11:23 49.04644 -123.87035 100 ft 24 kts
2026-04-17 11:24 49.05092 -123.87027 101 ft 102 kts
2026-04-17 11:24 49.06019 -123.87015 154 ft 155 kts 360°
2026-04-17 11:24 49.07117 -123.87002 884 ft 156 kts
2026-04-17 11:24 49.08253 -123.86881 1540 ft 169 kts 11°
2026-04-17 11:25 49.09383 -123.86180 2212 ft 181 kts 31°
2026-04-17 11:25 49.10493 -123.85312 3014 ft 184 kts 22°
2026-04-17 11:25 49.11478 -123.84101 3737 ft 187 kts 64°
2026-04-17 11:25 49.11983 -123.82274 4500 ft 190 kts 54°
2026-04-17 11:26 49.13108 -123.81279 5088 ft 202 kts
2026-04-17 11:26 49.14534 -123.81768 5732 ft 212 kts 336°
2026-04-17 11:26 49.15855 -123.82696 6787 ft 211 kts 334°
2026-04-17 11:26 49.17170 -123.83710 7698 ft 213 kts 332°
2026-04-17 11:27 49.18485 -123.84801 8515 ft 220 kts 330°
2026-04-17 11:27 49.19845 -123.86066 9099 ft 237 kts 321°
2026-04-17 11:27 49.21085 -123.87759 9829 ft 243 kts 315°
2026-04-17 11:27 49.22284 -123.89586 10768 ft 244 kts 316°
2026-04-17 11:28 49.23494 -123.91389 11694 ft 241 kts 318°
2026-04-17 11:28 49.24754 -123.93096 12614 ft 241 kts 320°
2026-04-17 11:28 49.26035 -123.94733 13479 ft 240 kts 322°
2026-04-17 11:28 49.27337 -123.96347 14283 ft 241 kts 322°
2026-04-17 11:29 49.28632 -123.97976 15091 ft 241 kts 322°
2026-04-17 11:29 49.29919 -123.99628 15856 ft 242 kts 322°
2026-04-17 11:29 49.31209 -124.01294 16617 ft 243 kts 322°
2026-04-17 11:29 49.32542 -124.02887 17312 ft 244 kts 326°
2026-04-17 11:30 49.33984 -124.04338 17795 ft 254 kts 329°
2026-04-17 11:30 49.35492 -124.05740 18394 ft 258 kts 330°
2026-04-17 11:30 49.37031 -124.07183 19028 ft 260 kts 329°
2026-04-17 11:30 49.38560 -124.08694 19658 ft 263 kts 328°
2026-04-17 11:31 49.40099 -124.10265 20266 ft 265 kts 327°
2026-04-17 11:31 49.41644 -124.11845 20846 ft 268 kts 327°
2026-04-17 11:31 49.43202 -124.13447 21418 ft 270 kts 327°
2026-04-17 11:31 49.44770 -124.15060 21980 ft 273 kts 327°
2026-04-17 11:32 49.46355 -124.16673 22517 ft 274 kts 326°
2026-04-17 11:32 49.47713 -124.18763 22993 ft 281 kts 310°
2026-04-17 11:32 49.48804 -124.21281 23488 ft 285 kts 304°
2026-04-17 11:32 49.49743 -124.23988 23988 ft 289 kts 300°
2026-04-17 11:33 49.50601 -124.26803 24451 ft 292 kts 300°
2026-04-17 11:33 49.51462 -124.29633 24938 ft 292 kts 301°
2026-04-17 11:33 49.52374 -124.32423 25422 ft 292 kts 302°
2026-04-17 11:33 49.53327 -124.35198 25864 ft 293 kts 302°
2026-04-17 11:34 49.54265 -124.37940 26291 ft 294 kts 302°
2026-04-17 11:34 49.55211 -124.40741 26714 ft 295 kts 301°
2026-04-17 11:34 49.56145 -124.43565 27098 ft 297 kts 301°
2026-04-17 11:34 49.57076 -124.46400 27531 ft 297 kts 301°
2026-04-17 11:35 49.58011 -124.49251 27895 ft 298 kts 301°
2026-04-17 11:35 49.58944 -124.52116 28290 ft 299 kts 301°
2026-04-17 11:35 49.59887 -124.54977 28645 ft 300 kts 301°
2026-04-17 11:35 49.60833 -124.57842 29002 ft 300 kts 301°
2026-04-17 11:36 49.61781 -124.60716 29332 ft 301 kts 301°
2026-04-17 11:36 49.62730 -124.63600 29636 ft 302 kts 301°
2026-04-17 11:36 49.63685 -124.66497 29945 ft 303 kts 300°
2026-04-17 11:36 49.64636 -124.69400 30247 ft 304 kts 300°
2026-04-17 11:37 49.65591 -124.72313 30517 ft 306 kts 300°
2026-04-17 11:37 49.66552 -124.75242 30797 ft 307 kts 300°
2026-04-17 11:37 49.67518 -124.78190 31030 ft 308 kts 300°
2026-04-17 11:37 49.68484 -124.81149 31295 ft 309 kts 300°
2026-04-17 11:38 49.69454 -124.84120 31541 ft 310 kts 300°
2026-04-17 11:38 49.70424 -124.87107 31788 ft 311 kts 300°
2026-04-17 11:38 49.71418 -124.90087 32030 ft 311 kts 302°
2026-04-17 11:38 49.72506 -124.92905 32369 ft 308 kts 306°
2026-04-17 11:39 49.73708 -124.95640 32629 ft 307 kts 307°
2026-04-17 11:39 49.74920 -124.98357 32885 ft 307 kts 306°
2026-04-17 11:39 49.76084 -125.01112 33182 ft 306 kts 304°
2026-04-17 11:39 49.77204 -125.03907 33417 ft 306 kts 304°
2026-04-17 11:40 49.78314 -125.06711 33687 ft 304 kts 304°
2026-04-17 11:40 49.79424 -125.09494 33914 ft 303 kts 304°
2026-04-17 11:40 49.80549 -125.12247 34153 ft 303 kts 304°
2026-04-17 11:40 49.81682 -125.15012 34261 ft 306 kts 304°
2026-04-17 11:41 49.83992 -125.20680 34338 ft 316 kts 304°
2026-04-17 11:41 49.85972 -125.25546 34360 ft 326 kts 304°
2026-04-17 11:42 49.88839 -125.32605 34370 ft 340 kts 304°
2026-04-17 11:42 49.90963 -125.37885 34369 ft 349 kts 304°
2026-04-17 11:43 49.93579 -125.44362 34368 ft 359 kts 304°
2026-04-17 11:43 49.96267 -125.51028 34367 ft 369 kts 303°
2026-04-17 11:44 49.99002 -125.57823 34365 ft 378 kts 303°
2026-04-17 11:44 50.01806 -125.64828 34362 ft 385 kts 304°
2026-04-17 11:45 50.04767 -125.71877 34344 ft 392 kts 305°
2026-04-17 11:45 50.07659 -125.79139 34328 ft 397 kts 301°
2026-04-17 11:46 50.10450 -125.86632 34341 ft 402 kts 303°
2026-04-17 11:46 50.13507 -125.93998 34354 ft 406 kts 304°
2026-04-17 11:47 50.16467 -126.01497 34361 ft 411 kts 302°
2026-04-17 11:47 50.19438 -126.09180 34353 ft 415 kts 303°
2026-04-17 11:48 50.22469 -126.16891 34337 ft 418 kts 303°
2026-04-17 11:48 50.25521 -126.24640 34334 ft 419 kts 302°
2026-04-17 11:49 50.28594 -126.32386 34345 ft 420 kts 303°
2026-04-17 11:49 50.31648 -126.40186 34335 ft 421 kts 303°
2026-04-17 11:50 50.34710 -126.48016 34340 ft 422 kts 302°
2026-04-17 11:50 50.37765 -126.55901 34348 ft 423 kts 303°
2026-04-17 11:51 50.40859 -126.63665 34314 ft 417 kts 307°
2026-04-17 11:51 50.43746 -126.71524 34313 ft 417 kts 298°
2026-04-17 11:52 50.46672 -126.79333 34331 ft 413 kts 308°
2026-04-17 11:52 50.49729 -126.86993 34346 ft 416 kts 301°
2026-04-17 11:53 50.52602 -126.94900 34357 ft 418 kts 302°
2026-04-17 11:53 50.55637 -127.02731 34356 ft 420 kts 302°
2026-04-17 11:54 50.58682 -127.10596 34353 ft 421 kts 302°
2026-04-17 11:54 50.61697 -127.18518 34351 ft 422 kts 302°
2026-04-17 11:55 50.64710 -127.26483 34348 ft 423 kts 303°
2026-04-17 11:55 50.66536 -127.30086 34350 ft 422 kts 316°
2026-04-17 11:55 50.68767 -127.33014 34359 ft 423 kts 321°
2026-04-17 11:56 50.73509 -127.38533 34354 ft 424 kts 322°
2026-04-17 11:56 50.78303 -127.43992 34348 ft 425 kts 323°
2026-04-17 11:57 50.83454 -127.48624 34349 ft 428 kts 332°
2026-04-17 11:57 50.88896 -127.52519 34347 ft 428 kts 332°
2026-04-17 11:58 50.94241 -127.56690 34348 ft 428 kts 330°
2026-04-17 11:58 50.99503 -127.60978 34346 ft 428 kts 330°
2026-04-17 11:59 51.04816 -127.65245 34346 ft 429 kts 330°
2026-04-17 11:59 51.10113 -127.69453 34346 ft 429 kts 330°
2026-04-17 12:00 51.15500 -127.73751 34347 ft 429 kts 330°
2026-04-17 12:00 51.20852 -127.78020 34351 ft 430 kts 330°
2026-04-17 12:01 51.26208 -127.82308 34347 ft 431 kts 330°
2026-04-17 12:01 51.31562 -127.86611 34346 ft 431 kts 330°
2026-04-17 12:02 51.36930 -127.90927 34347 ft 432 kts 330°
2026-04-17 12:02 51.42297 -127.95248 34345 ft 432 kts 330°
2026-04-17 12:03 51.47634 -127.99579 34347 ft 433 kts 329°
2026-04-17 12:03 51.53023 -128.03950 34350 ft 435 kts 329°
2026-04-17 12:04 51.58458 -128.08377 34359 ft 436 kts 329°
2026-04-17 12:04 51.63842 -128.12743 34353 ft 436 kts 329°
2026-04-17 12:05 51.69280 -128.17120 34350 ft 437 kts 330°
2026-04-17 12:05 51.74711 -128.21527 34347 ft 436 kts 329°
2026-04-17 12:06 51.80118 -128.25969 34346 ft 436 kts 329°
2026-04-17 12:06 51.85531 -128.30430 34345 ft 436 kts 329°
2026-04-17 12:07 51.90939 -128.34899 34346 ft 436 kts 329°
2026-04-17 12:07 51.96350 -128.39387 34346 ft 436 kts 329°
2026-04-17 12:08 52.01753 -128.43874 34347 ft 437 kts 329°
2026-04-17 12:08 52.07126 -128.48361 34346 ft 437 kts 329°
2026-04-17 12:09 52.12531 -128.52879 34347 ft 437 kts 329°
2026-04-17 12:09 52.17935 -128.57405 34346 ft 437 kts 329°
2026-04-17 12:10 52.23340 -128.61947 34347 ft 437 kts 329°
2026-04-17 12:10 52.28741 -128.66503 34348 ft 437 kts 329°
2026-04-17 12:11 52.34149 -128.71071 34351 ft 438 kts 329°
2026-04-17 12:12 52.42275 -128.77964 34350 ft 438 kts 329°
2026-04-17 12:12 52.47653 -128.82541 34348 ft 439 kts 329°
2026-04-17 12:13 52.53069 -128.87164 34347 ft 439 kts 329°
2026-04-17 12:13 52.58487 -128.91799 34348 ft 439 kts 329°
2026-04-17 12:14 52.63909 -128.96443 34342 ft 439 kts 328°
2026-04-17 12:14 52.69323 -129.01118 34347 ft 440 kts 328°
2026-04-17 12:15 52.74751 -129.05798 34343 ft 440 kts 328°
2026-04-17 12:15 52.80154 -129.10556 34352 ft 440 kts 328°
2026-04-17 12:16 52.85567 -129.15299 34359 ft 441 kts 328°
2026-04-17 12:16 52.90980 -129.19980 34342 ft 442 kts 329°
2026-04-17 12:17 52.96439 -129.24657 34337 ft 441 kts 328°
2026-04-17 12:17 53.01877 -129.29412 34337 ft 441 kts 328°
2026-04-17 12:18 53.07305 -129.34174 34337 ft 441 kts 328°
2026-04-17 12:18 53.12737 -129.38960 34336 ft 442 kts 328°
2026-04-17 12:19 53.18164 -129.43754 34337 ft 442 kts 328°
2026-04-17 12:19 53.23602 -129.48566 34337 ft 442 kts 328°
2026-04-17 12:20 53.29040 -129.53389 34328 ft 442 kts 328°
2026-04-17 12:20 53.34463 -129.58244 34351 ft 442 kts 327°
2026-04-17 12:21 53.39843 -129.63243 34328 ft 444 kts 329°
2026-04-17 12:21 53.45355 -129.67896 34326 ft 443 kts 328°
2026-04-17 12:22 53.50737 -129.72820 34318 ft 443 kts 328°
2026-04-17 12:22 53.56128 -129.77829 34351 ft 443 kts 328°
2026-04-17 12:23 53.61565 -129.82779 34417 ft 444 kts 327°
2026-04-17 12:23 53.67073 -129.87593 34346 ft 448 kts 330°
2026-04-17 12:24 53.72582 -129.92484 34383 ft 445 kts 326°
2026-04-17 12:24 53.77936 -129.97657 34266 ft 448 kts 330°
2026-04-17 12:25 53.83451 -130.02456 34310 ft 444 kts 327°
2026-04-17 12:25 53.88831 -130.07615 34326 ft 445 kts 327°
2026-04-17 12:26 53.94285 -130.12602 34329 ft 446 kts 328°
2026-04-17 12:26 53.99765 -130.17574 34328 ft 446 kts 328°
2026-04-17 12:27 54.05222 -130.22593 34229 ft 448 kts 326°
2026-04-17 12:27 54.07935 -130.25252 33725 ft 445 kts 327°
2026-04-17 12:27 54.10614 -130.27687 33206 ft 427 kts 328°
2026-04-17 12:27 54.13202 -130.29990 32691 ft 412 kts 328°
2026-04-17 12:28 54.15691 -130.32265 32194 ft 399 kts 328°
2026-04-17 12:28 54.18054 -130.34487 31718 ft 388 kts 327°
2026-04-17 12:28 54.20389 -130.36677 31249 ft 378 kts 328°
2026-04-17 12:28 54.22669 -130.38807 30793 ft 369 kts 328°
2026-04-17 12:29 54.24896 -130.40891 30350 ft 360 kts 328°
2026-04-17 12:29 54.27067 -130.42927 29923 ft 352 kts 328°
2026-04-17 12:29 54.29121 -130.45109 29506 ft 343 kts 322°
2026-04-17 12:29 54.30995 -130.47543 29103 ft 335 kts 318°
2026-04-17 12:30 54.32746 -130.50120 28706 ft 329 kts 316°
2026-04-17 12:30 54.34439 -130.52703 28314 ft 323 kts 316°
2026-04-17 12:30 54.36108 -130.55257 27936 ft 319 kts 316°
2026-04-17 12:30 54.37779 -130.57718 27547 ft 315 kts 318°
2026-04-17 12:31 54.39461 -130.60091 27172 ft 311 kts 318°
2026-04-17 12:31 54.41127 -130.62427 26803 ft 307 kts 319°
2026-04-17 12:31 54.42775 -130.64743 26437 ft 304 kts 318°
2026-04-17 12:31 54.44391 -130.67058 26079 ft 301 kts 318°
2026-04-17 12:32 54.45452 -130.68589 25842 ft 299 kts 318°
2026-04-17 12:32 54.47038 -130.70880 25490 ft 297 kts 318°
2026-04-17 12:32 54.48615 -130.73158 25139 ft 295 kts 318°
2026-04-17 12:32 54.50689 -130.76154 24680 ft 292 kts 318°
2026-04-17 12:33 54.52235 -130.78395 24338 ft 290 kts 318°
2026-04-17 12:33 54.53775 -130.80634 23996 ft 289 kts 318°
2026-04-17 12:33 54.54815 -130.82147 23768 ft 291 kts 318°
2026-04-17 12:33 54.56381 -130.84420 23426 ft 296 kts 318°
2026-04-17 12:34 54.57971 -130.86720 23102 ft 301 kts 318°
2026-04-17 12:34 54.59588 -130.89050 22776 ft 305 kts 319°
2026-04-17 12:34 54.61203 -130.91379 22450 ft 308 kts 318°
2026-04-17 12:34 54.62857 -130.93763 22127 ft 311 kts 319°
2026-04-17 12:35 54.64527 -130.96167 21797 ft 314 kts 319°
2026-04-17 12:35 54.66210 -130.98589 21465 ft 317 kts 319°
2026-04-17 12:35 54.67913 -131.01038 21132 ft 319 kts 319°
2026-04-17 12:35 54.69626 -131.03500 20793 ft 322 kts 319°
2026-04-17 12:37 54.81972 -131.21238 18445 ft 339 kts 319°
2026-04-17 12:37 54.83801 -131.23853 18108 ft 342 kts 319°
2026-04-17 12:38 54.85620 -131.26470 17766 ft 336 kts 318°
2026-04-17 12:38 54.87410 -131.29050 17430 ft 332 kts 319°
2026-04-17 12:38 54.89155 -131.31565 17081 ft 329 kts 318°
2026-04-17 12:38 54.90909 -131.34092 16738 ft 327 kts 319°
2026-04-17 12:39 54.92656 -131.36608 16390 ft 325 kts 319°
2026-04-17 12:39 54.94379 -131.39073 16043 ft 315 kts 319°
2026-04-17 12:39 54.96049 -131.41458 15696 ft 306 kts 319°
2026-04-17 12:39 54.97679 -131.43783 15332 ft 300 kts 319°
2026-04-17 12:40 54.99273 -131.46075 14974 ft 294 kts 318°
2026-04-17 12:40 55.00837 -131.48336 14616 ft 289 kts 318°
2026-04-17 12:40 55.02374 -131.50554 14266 ft 286 kts 319°
2026-04-17 12:40 55.03900 -131.52750 13916 ft 283 kts 319°
2026-04-17 12:41 55.05410 -131.54918 13563 ft 280 kts 319°
2026-04-17 12:41 55.06909 -131.57074 13216 ft 277 kts 319°
2026-04-17 12:41 55.08392 -131.59200 12864 ft 275 kts 319°
2026-04-17 12:41 55.09864 -131.61310 12516 ft 272 kts 319°
2026-04-17 12:42 55.11304 -131.63376 12174 ft 270 kts 319°
2026-04-17 12:42 55.12748 -131.65453 11825 ft 267 kts 319°
2026-04-17 12:42 55.14176 -131.67506 11482 ft 263 kts 319°
2026-04-17 12:42 55.15585 -131.69522 11130 ft 259 kts 319°
2026-04-17 12:43 55.16969 -131.71512 10772 ft 256 kts 319°
2026-04-17 12:43 55.18338 -131.73486 10418 ft 254 kts 319°
2026-04-17 12:43 55.19691 -131.75448 10061 ft 251 kts 319°
2026-04-17 12:43 55.21034 -131.77392 9723 ft 249 kts 319°
2026-04-17 12:44 55.22348 -131.79307 9538 ft 241 kts 319°
2026-04-17 12:44 55.23605 -131.81144 9460 ft 229 kts 319°
2026-04-17 12:44 55.24801 -131.82893 9417 ft 219 kts 319°
2026-04-17 12:44 55.25943 -131.84558 9394 ft 209 kts 319°
2026-04-17 12:45 55.27024 -131.86127 9408 ft 195 kts 319°
2026-04-17 12:45 55.28040 -131.87593 9395 ft 184 kts 319°
2026-04-17 12:45 55.29012 -131.88991 9386 ft 185 kts 319°
2026-04-17 12:45 55.30027 -131.90454 9239 ft 199 kts 319°
2026-04-17 12:46 55.31182 -131.92135 8748 ft 228 kts 319°
2026-04-17 12:46 55.32420 -131.93949 8299 ft 236 kts 319°
2026-04-17 12:46 55.33693 -131.95816 7833 ft 241 kts 319°
2026-04-17 12:46 55.34992 -131.97738 7367 ft 247 kts 319°
2026-04-17 12:47 55.36318 -131.99697 6889 ft 251 kts 319°
2026-04-17 12:47 55.37666 -132.01694 6404 ft 255 kts 319°
2026-04-17 12:47 55.39032 -132.03721 5917 ft 259 kts 319°
2026-04-17 12:47 55.40416 -132.05777 5427 ft 262 kts 319°
2026-04-17 12:48 55.41808 -132.07846 4932 ft 262 kts 319°
2026-04-17 12:48 55.43194 -132.09918 4440 ft 262 kts 319°
2026-04-17 12:48 55.44583 -132.12002 3937 ft 262 kts 319°
2026-04-17 12:48 55.45958 -132.14081 3547 ft 255 kts 319°
2026-04-17 12:49 55.47263 -132.16062 3368 ft 240 kts 319°
2026-04-17 12:49 55.48481 -132.17916 3272 ft 223 kts 319°
2026-04-17 12:49 55.49605 -132.19641 3236 ft 206 kts 319°
2026-04-17 12:49 55.50645 -132.21234 3206 ft 190 kts 319°
2026-04-17 12:50 55.51766 -132.22200 3162 ft 173 kts 358°
2026-04-17 12:50 55.52854 -132.21609 3014 ft 164 kts 40°
2026-04-17 12:50 55.53587 -132.20215 3036 ft 145 kts 54°
2026-04-17 12:50 55.54036 -132.18708 3092 ft 142 kts 76°
2026-04-17 12:51 55.54059 -132.16780 3055 ft 171 kts 100°
2026-04-17 12:51 55.53793 -132.14737 3400 ft 173 kts 105°
2026-04-17 12:51 55.53484 -132.12651 3624 ft 180 kts 106°
2026-04-17 12:51 55.53125 -132.10498 3498 ft 184 kts 108°
2026-04-17 12:52 55.52738 -132.08293 3093 ft 195 kts 108°
2026-04-17 12:52 55.52289 -132.05925 2530 ft 209 kts 112°
2026-04-17 12:52 55.51743 -132.03573 2289 ft 198 kts 113°
2026-04-17 12:52 55.51215 -132.01511 2435 ft 179 kts 117°
2026-04-17 12:53 55.50596 -131.99560 2453 ft 177 kts 120°
2026-04-17 12:53 55.50032 -131.97892 2585 ft 150 kts 123°
2026-04-17 12:53 55.49473 -131.96319 2512 ft 155 kts 124°
2026-04-17 12:53 55.48782 -131.94816 2398 ft 162 kts 134°
2026-04-17 12:54 55.48004 -131.93374 2322 ft 162 kts 134°
2026-04-17 12:54 55.47257 -131.91945 2302 ft 153 kts 134°
2026-04-17 12:54 55.46555 -131.90568 2251 ft 153 kts 133°
2026-04-17 12:54 55.45859 -131.89131 2210 ft 153 kts 129°
2026-04-17 12:55 55.45139 -131.87757 2187 ft 154 kts 138°
2026-04-17 12:55 55.44302 -131.86514 2101 ft 159 kts 141°
2026-04-17 12:55 55.43463 -131.85247 2078 ft 160 kts 138°
2026-04-17 12:55 55.42660 -131.83905 2102 ft 157 kts 136°
2026-04-17 12:56 55.41886 -131.82462 1875 ft 168 kts 132°
2026-04-17 12:56 55.41104 -131.80945 1527 ft 167 kts 133°
2026-04-17 12:56 55.40285 -131.79521 1105 ft 159 kts 138°
2026-04-17 12:56 55.39534 -131.78286 855 ft 138 kts 135°
2026-04-17 12:57 55.38898 -131.77153 725 ft 132 kts 136°
2026-04-17 12:57 55.38204 -131.75939 603 ft 148 kts 137°
2026-04-17 12:57 55.37464 -131.74668 525 ft 152 kts 133°
2026-04-17 12:57 55.36719 -131.73327 313 ft 150 kts 134°
2026-04-17 12:58 55.35991 -131.72114 100 ft 130 kts 131°
2026-04-17 12:58 55.35553 -131.71354 100 ft 30 kts 138°
2026-04-17 12:58 55.35534 -131.71324 98 ft 10 kts 137°
2026-04-17 12:58 55.35297 -131.70912 98 ft 63 kts 135°
2026-04-17 12:59 55.35007 -131.70440 101 ft 48 kts 136°
2026-04-17 12:59 55.34858 -131.70096 99 ft 25 kts 81°
2026-04-17 12:59 55.34945 -131.70071 99 ft 15 kts 322°
2026-04-17 12:59 55.35032 -131.70191 99 ft 17 kts 318°
2026-04-17 13:00 55.35132 -131.70351 93 ft 22 kts 316°
2026-04-17 13:00 55.35270 -131.70589 68 ft 33 kts 315°
2026-04-17 13:00 55.35432 -131.70868 40 ft 17 kts 316°
2026-04-17 13:00 55.35525 -131.71008 40 ft 16 kts 321°
2026-04-17 13:01 55.35578 -131.71062 40 ft 9 kts
2026-04-17 13:01 55.35628 -131.70997 40 ft 4 kts 46°
2026-04-17 13:01 55.35629 -131.70995 40 ft 0 kts 46°
2026-04-17 13:01 55.35633 -131.70988 40 ft 0 kts 47°
2026-04-17 13:02 55.35633 -131.70987 40 ft 0 kts 47°
2026-04-17 13:05 55.35634 -131.70987 40 ft 0 kts 47°
2026-04-17 13:06 55.35634 -131.70985 40 ft 0 kts 47°
2026-04-17 13:07 55.35635 -131.70984 40 ft 0 kts 47°